Torna al catalogo

STARLINK-37354

AttivoComunicazioniSSO
NORAD 68743·PAYLOAD·🇺🇸 United States

Lanciato Apr 15, 2026 da Vandenberg Space Force Base

Loading…

Prossimi Passaggi (prossime 24 ore)

TLE

AggiornatoSource: CelesTrak SupGP

Epoca: Sep 15, 2026, 03:19 UTC

1 68743C 26082R   26258.13868056  .00001112  00000+0  34498-4 0  2580
2 68743  97.2852 120.4340 0001794  96.1638  72.0247 15.33448610    19

Traccia STARLINK-37354 in tempo reale con AllMySat

Download on the App Store